Location: Gradaro
(45.0833°N, 10.8833°E)
Time: 14:11:00
(UTC+00:00)

CENTAUR R/B - Pass Details

Date: 29 November 2020
Orbit: 750 x 1438 km, 63.4° (Epoch: 11 January)

Event Time Altitude Azimuth Distance (km) Brightness Sun altitude
Exits shadow 04:01:37 48° 274° (W) 1,745 3.3 -26.0°
Maximum altitude 04:03:09 53° 242° (WSW) 1,668 3.3 -25.8°
Drops below altitude 10° 04:11:38 10° 169° (SSE) 3,539 5.6 -24.3°
Sets 04:14:41 0° 165° (SSE) 4,507 6.3 -23.7°
